Погода в Фюрте

Германия     49°28′24″N   10°59′33″E
темп.,
°C
ветер,
м/с
пор.,
м/с
влажн.,
%
обл.,
%
осадки,
мм/ч
давл.,
гПа
погр.,
м
16 апреля, пт
пт1623:00+1с2575100 0.0 1027225
02:000с238684 0.0 1026102
05:000ссз249689 0.1 1026178
08:00+1с248730 0.2 1026337
11:00+5ссв3457100 0.0 10251336
14:00+6ссв3457100 0.0 10241345
17:00+6ссв4563100 0.1 10231024
20:00+5ссв3770100 0.1 1024455
17 апреля, сб
сб1723:00+3св128086 0.0 102486
02:00+1ссз128899 0.0 102446
05:00−1с239185 0.0 102360
08:00+1с247993 0.0 1024201
11:00+7с345514 0.0 1022968
14:00+7ссв456792 0.0 1021976
17:00+7ссв4468100 0.0 10211036
20:00+4ссв4680100 0.0 1021437
18 апреля, вс
вс1823:00+3с2489100 0.0 1022251
02:00+3с239385 0.0 1022150
05:00+3с1390100 0.0 1021138
08:00+3с1293100 0.3 1022121
11:00+4ссз1394100 0.8 1022243
14:00+7с3388100 1.0 1021960
17:00+7с248686 0.2 1020482
20:00+6с229018 0.2 102025
19 апреля, пн
пн1923:00+4сз119438 0.0 102110
02:00+3зсз119438 0.0 102011
05:00+3ссз119466 0.0 102016
08:00+4сз129198 0.1 101983
11:00+8ссв3482100 0.2 1019995
14:00+7всв1385100 0.4 1018421
17:00+11с2363100 0.1 1016881
20:00+8св227896 0.4 101621
20 апреля, вт
вт2023:00+5ссз11875 0.0 101710
02:00+4с00915 0.0 101710
05:00+3всв00945 0.0 101610
08:00+5ююв01875 0.0 1016100
11:00+11ююз11625 0.0 1015670
14:00+15зсз11455 0.1 10131448
17:00+15ююз324558 0.2 10111607
20:00+11сз116363 0.6 101130